Flag for China Weather past 2 weeks in Foochow, Fujian, China

Now
75 °F

Overcast.


Feels Like: 75 °F
Forecast: 71 / 80 °F
Wind: 22 mph from Northeast

Location: Fuzhou Airport

Current Time: Sep 20, 2014 at 2:33:09 AM

Latest Report: Sep 20, 2014 at 2:00 AM


Visibility: 5 mi

Pressure: 29.68 "Hg

Humidity: 89%

Dew point: 72 °F

Location of FoochowLocation

Historic Weather in Foochow — Graph

°F

Foochow temperature yesterday

Maximum temperature yesterday: 88 °F (at 12:00 PM)
Minimum temperature yesterday: 81 °F (at 3:00 AM)
Average temperature yesterday: 83 °F

Past Weeks' High & Low Weather Summary

 TemperatureHumidityPressure
High93 °F (Sep 12, 12:00 PM)94% (Sep 9, 5:00 AM)29.98 "Hg (Sep 9, 5:00 AM)
Low77 °F (Sep 5, 3:00 AM)56% (Sep 12, 12:00 PM)29.68 "Hg (Sep 8, 3:00 PM)
Average84 °F77%29.80 "Hg
* Reported Sep 5 1:00 AM — Sep 20 1:00 AM, Foochow, Weather by CustomWeather, © 2014

Note: Actual official high and low records may vary slightly from our data, if they occured in-between our weather recording intervals... More about our weather records

Advertising

Foochow weather history for previous 24 hours

 ConditionsComfort  
Time TempWeatherWind HumidityBarometerVisibility
1:00 AM
Sep 20
77 °FPassing clouds.24 mph83%29.71 "Hg4 mi
12:00 AM79 °FMostly cloudy.24 mph79%29.71 "HgN/A
11:00 PM
Sep 19
81 °FPartly cloudy.24 mph79%29.74 "HgN/A
10:00 PM81 °FPassing clouds.22 mph79%29.74 "HgN/A
9:00 PM81 °FPartly cloudy.20 mph79%29.74 "HgN/A
8:00 PM81 °FPassing clouds.17 mph79%29.74 "HgN/A
7:00 PM81 °FPartly cloudy.22 mph79%29.74 "HgN/A
6:00 PM81 °FPassing clouds.22 mph79%29.71 "HgN/A
5:00 PM82 °FPassing clouds.22 mph79%29.68 "HgN/A
4:00 PM84 °FScattered clouds.22 mph74%29.68 "HgN/A
3:00 PM88 °FScattered clouds.20 mph66%29.68 "HgN/A
2:00 PM86 °FPartly sunny.22 mph70%29.71 "HgN/A
1:00 PM88 °FPartly sunny.24 mph66%29.74 "HgN/A
12:00 PM88 °FPartly sunny.22 mph66%29.77 "HgN/A
11:00 AM86 °FPartly sunny.20 mph70%29.77 "HgN/A
10:00 AM84 °FPartly sunny.17 mph74%29.83 "HgN/A
9:00 AM84 °FPartly sunny.17 mph74%29.80 "HgN/A
8:00 AM84 °FScattered clouds.15 mph74%29.80 "HgN/A
7:00 AM82 °FScattered clouds.13 mph74%29.83 "HgN/A
6:00 AM81 °FScattered clouds.13 mph84%29.80 "HgN/A
5:00 AM81 °FPassing clouds.13 mph84%29.80 "HgN/A
4:00 AM82 °FPassing clouds.13 mph79%29.80 "HgN/A
3:00 AM81 °FPassing clouds.6 mph84%29.80 "HgN/A
2:00 AM82 °FPassing clouds.10 mph79%29.83 "HgN/A
Weather by CustomWeather, © 2014

See weather overviewHow to use our weather pages